Wind_Speed
14 14 14 13 13 14 14 14 13 12 11 10 10 10 10 10 9 9 7 7 7 7 7 6 6 6 6 5 5 6 7 7 8 9 10 10 10 10 11 10 11 11 12 11
15 15 15 14 14 14 14 13 12 11 12 11 11 10 11 10 9 8 7 6 7 8 7 7 6 6 7 6 6 7 7 8 9 10 10 10 10 11 11 11 11 11 11 11
16 15 16 15 14 13 13 12 12 11 11 12 11 10 11 11 10 9 7 7 8 8 7 7 7 7 7 8 9 9 9 9 10 10 11 11 11 11 11 11 12 11 11 11
18 17 16 15 14 14 13 13 13 13 13 11 11 11 10 10 10 9 8 8 9 9 8 8 8 8 9 10 10 10 10 11 11 11 11 11 11 11 11 12 12 11 11 11
18 18 17 16 15 15 14 14 13 14 14 13 13 12 11 10 10 10 10 10 10 10 9 9 10 10 10 10 10 10 11 12 12 12 12 12 12 12 12 12 11 11 11 11
20 19 18 17 17 16 16 15 14 15 15 16 15 15 13 12 11 11 10 10 10 10 10 11 11 11 11 11 11 11 11 12 12 12 12 12 12 11 11 11 11 11 11 11
21 21 20 19 19 17 17 17 17 17 16 15 15 14 14 14 13 12 12 11 11 11 11 11 11 11 11 11 12 12 12 12 11 11 11 11 11 11 11 11 11 10 10 11
20 21 21 20 20 19 19 18 17 16 16 15 15 14 14 14 13 13 13 13 13 13 13 12 12 12 12 13 13 13 13 13 12 12 12 11 11 11 11 11 10 10 10 11
21 21 21 21 20 19 19 19 18 17 16 16 16 15 14 14 14 13 14 14 15 15 14 14 14 14 13 13 13 13 14 13 12 12 12 11 11 11 11 10 10 9 10 10
23 22 22 22 21 20 20 20 19 18 18 18 18 17 16 15 15 15 15 15 16 16 15 15 14 14 14 14 14 14 14 13 13 13 13 12 11 11 10 10 9 9 10 10
24 23 23 23 21 20 20 19 19 18 18 19 19 19 18 17 17 16 16 17 16 16 16 15 15 15 15 15 15 15 14 14 13 13 13 12 11 10 10 10 9 10 10 11
25 24 24 23 23 22 21 20 19 19 19 18 18 19 19 19 18 18 17 17 18 17 16 15 16 16 16 16 15 15 14 14 13 12 13 12 11 10 10 10 10 10 11 11
26 25 25 24 24 23 22 21 21 20 19 18 18 19 19 19 20 20 18 18 19 18 16 17 17 17 16 16 16 15 15 14 13 12 12 12 12 11 11 11 11 11 11 11
26 26 26 25 24 23 23 23 23 22 21 20 20 19 19 20 20 20 20 20 20 20 19 18 17 18 17 17 16 16 15 15 15 14 13 13 13 12 12 11 11 11 11 11
26 26 26 25 25 24 24 24 23 23 22 21 21 21 21 22 22 22 22 22 22 21 20 20 19 18 18 17 17 17 17 16 15 15 14 14 14 13 12 12 12 12 12 12
26 27 27 26 26 25 25 25 24 23 23 23 22 21 21 22 22 22 22 22 23 23 22 21 20 19 19 18 18 18 17 17 16 15 16 15 15 15 14 14 14 14 13 13
26 26 27 27 27 27 27 26 26 26 26 25 25 24 23 22 22 22 22 21 22 22 21 21 21 20 20 19 19 19 19 18 17 17 17 17 16 16 16 16 16 15 15 14
27 27 27 27 27 27 27 27 27 27 26 26 25 25 24 23 23 23 23 22 22 22 22 22 22 21 21 20 20 20 20 20 19 19 18 18 17 17 17 16 16 17 16 15
25 25 25 25 26 26 27 27 27 27 27 26 26 25 24 24 24 24 24 24 23 23 23 23 23 23 22 21 21 21 20 20 19 19 18 18 18 17 17 16 16 16 16 16
24 23 25 25 26 26 26 26 27 26 26 25 26 26 26 25 25 25 25 25 25 24 24 25 25 25 24 23 22 22 21 20 20 19 19 18 18 18 18 17 17 17 17 17
24 24 24 26 26 26 25 26 26 26 26 25 26 26 26 26 26 26 25 25 25 24 24 24 24 24 24 23 23 22 22 21 20 20 19 19 19 19 19 19 18 18 17 17
25 25 24 24 25 25 26 26 26 26 26 26 26 25 25 25 25 25 25 25 25 25 24 23 23 23 23 23 23 23 23 22 21 21 21 21 20 20 20 20 20 19 19 18
26 26 26 26 25 25 26 26 26 26 26 25 25 24 24 23 24 24 24 24 24 24 24 23 22 23 23 24 23 23 23 23 22 23 22 22 21 22 21 21 21 20 20 19
26 26 26 26 26 26 25 25 25 25 25 24 23 23 23 23 23 23 23 23 23 23 24 23 23 23 24 23 23 23 23 23 24 24 23 23 22 22 22 22 21 21 21 21
24 24 25 25 24 24 23 23 23 23 23 23 22 22 22 22 23 23 23 23 23 22 22 22 22 22 22 23 22 22 23 23 24 24 24 24 24 23 23 23 23 22 22 22
22 22 23 23 23 22 22 22 22 22 21 21 21 21 21 22 23 24 24 23 23 23 23 23 24 24 24 24 24 24 24 24 25 25 24 24 24 24 25 24 24 24 24 24
20 20 20 21 21 22 21 21 21 22 22 22 22 22 22 22 22 23 24 24 24 24 24 24 24 25 26 26 26 25 25 24 24 24 24 24 25 25 25 25 26 26 26 25
Wind_Direction
284 284 284 285 285 284 285 286 289 288 284 280 282 285 284 287 290 288 284 284 290 297 304 307 305 302 304 300 305 306 303 302 304 309 311 307 304 301 300 300 304 301 299 300
281 283 282 286 286 282 281 281 283 286 283 279 275 280 283 281 277 278 276 277 283 290 296 299 299 298 301 304 308 305 299 296 301 310 311 307 303 301 301 303 303 303 300 298
279 281 281 283 287 283 278 275 279 282 284 274 273 276 277 273 268 270 269 274 282 285 288 289 291 290 293 296 298 297 294 296 302 307 305 305 305 305 303 304 304 303 301 298
280 282 281 285 284 284 282 280 280 281 281 271 270 274 276 274 268 267 265 269 276 279 279 282 288 290 292 295 295 295 294 295 299 302 303 305 306 306 303 303 303 300 297 298
278 280 280 279 281 284 282 277 276 277 278 279 272 271 274 268 262 262 265 270 274 275 278 281 287 290 292 295 299 299 297 295 296 297 301 303 302 303 304 302 300 299 296 294
275 277 277 276 278 279 280 276 276 277 276 276 274 271 269 263 257 259 265 266 269 268 273 279 286 290 291 294 297 300 300 298 295 296 300 302 302 302 304 303 300 298 296 294
271 273 276 276 276 277 278 281 280 282 281 277 274 274 272 264 258 258 261 267 269 266 270 278 282 285 290 294 296 299 300 301 300 296 297 300 301 301 301 301 299 298 298 297
270 272 273 275 274 276 277 279 278 277 278 277 275 273 269 266 261 260 262 266 267 270 272 274 279 284 289 292 296 297 296 297 298 296 296 297 298 300 299 298 295 296 297 299
271 272 273 273 274 275 276 277 276 275 273 270 271 271 266 264 262 263 265 267 266 270 275 277 280 282 284 289 294 296 293 291 293 294 297 297 297 299 299 298 293 292 293 296
268 270 270 271 273 274 275 275 275 274 272 270 268 266 263 261 260 262 266 266 267 268 270 273 275 277 279 284 289 294 296 292 292 293 295 296 295 297 298 299 297 295 292 294
267 268 268 268 272 271 271 272 273 272 272 269 266 262 262 263 263 263 264 265 266 267 267 270 274 277 279 281 285 290 294 295 294 294 294 296 293 294 295 296 297 296 294 294
266 266 267 267 268 267 269 270 270 270 268 269 266 261 260 261 260 259 260 261 263 266 265 269 273 275 277 280 281 284 288 291 291 290 291 293 290 289 289 292 294 292 295 296
264 264 264 264 265 266 267 267 267 267 268 270 270 267 263 262 261 259 258 259 262 264 266 268 271 274 277 278 278 278 281 284 284 285 287 289 288 284 283 285 289 291 295 298
262 262 263 262 262 263 263 264 265 265 267 269 270 269 265 262 262 263 262 262 262 265 267 267 269 273 276 276 275 274 275 277 278 281 283 283 282 279 279 280 285 290 293 297
261 261 260 260 261 261 261 262 262 264 266 267 268 270 269 265 263 262 262 262 263 265 267 266 267 271 273 273 272 272 272 273 276 278 278 278 278 278 276 276 280 286 289 292
262 261 260 260 260 260 260 260 262 263 265 266 268 269 269 267 264 262 261 262 263 264 263 263 265 268 270 269 269 270 269 270 272 274 275 275 275 278 276 273 275 281 284 286
263 262 260 259 259 258 258 258 260 261 262 263 264 265 266 266 265 264 263 261 261 261 261 262 264 265 266 267 268 268 267 266 269 271 272 272 272 275 277 273 272 275 279 281
263 264 261 258 256 256 257 257 259 259 259 261 263 265 266 265 264 264 262 260 259 260 261 263 263 264 265 266 268 268 268 267 269 271 270 270 269 271 274 275 274 272 275 279
263 261 258 256 253 254 256 257 257 258 259 261 263 264 265 265 265 264 262 261 260 261 262 261 261 262 263 266 268 268 268 268 268 268 268 267 265 266 270 272 274 274 275 278
259 256 254 255 255 257 257 257 259 261 261 262 263 264 264 264 264 263 263 263 262 263 262 261 260 259 261 263 264 265 266 267 266 266 267 267 264 263 266 269 273 276 276 276
257 256 253 253 255 256 257 258 259 261 261 262 264 266 266 264 263 262 262 262 262 262 262 262 260 258 259 260 261 262 263 264 263 262 264 265 264 263 266 269 271 273 276 278
254 255 254 253 254 255 257 259 260 261 262 264 264 264 264 263 262 261 261 261 260 260 260 262 261 260 259 260 260 259 260 261 261 261 264 264 263 263 266 268 268 270 273 276
256 256 256 256 258 261 261 261 260 260 261 263 261 260 260 261 261 261 262 260 259 258 258 260 261 260 260 260 260 259 259 259 260 261 263 263 263 264 266 267 268 269 271 273
261 260 258 258 260 262 262 261 261 260 260 258 256 257 258 258 257 257 258 257 256 255 255 257 260 261 261 260 261 261 261 260 260 260 261 261 261 263 265 265 266 267 269 271
259 259 259 258 259 261 262 261 261 259 256 254 254 256 257 256 256 256 258 257 255 255 256 258 259 260 259 259 261 262 262 261 260 259 259 260 261 262 264 265 266 267 269 271
260 260 261 260 259 258 258 258 257 256 255 257 256 256 258 259 259 259 259 258 257 257 258 258 257 257 258 258 260 262 262 261 261 260 260 261 262 262 263 264 266 267 268 270
259 260 260 259 257 257 257 256 256 257 257 258 258 259 259 260 260 260 260 259 259 260 260 260 260 259 258 260 262 262 262 262 260 259 261 262 262 263 264 265 266 267 268 270
Height
5816 5815 5813 5811 5810 5809 5807 5806 5805 5805 5804 5804 5802 5802 5801 5800 5800 5800 5799 5799 5799 5799 5799 5798 5797 5796 5795 5795 5794 5794 5793 5793 5792 5790 5789 5787 5786 5784 5783 5781 5780 5778 5777 5775
5812 5811 5809 5808 5806 5805 5804 5802 5802 5801 5801 5800 5799 5799 5798 5797 5797 5797 5797 5797 5797 5797 5797 5796 5795 5794 5793 5793 5792 5792 5791 5790 5789 5787 5786 5784 5783 5781 5780 5778 5776 5775 5773 5772
5808 5807 5805 5804 5803 5801 5800 5799 5798 5797 5798 5796 5796 5796 5795 5795 5795 5795 5795 5795 5795 5795 5794 5794 5793 5793 5792 5791 5790 5789 5788 5787 5786 5784 5783 5781 5779 5778 5776 5775 5773 5772 5770 5769
5803 5803 5801 5802 5799 5798 5797 5796 5795 5794 5793 5793 5793 5792 5792 5791 5792 5792 5792 5793 5793 5792 5792 5792 5791 5790 5789 5788 5787 5786 5785 5784 5783 5781 5779 5778 5776 5774 5773 5771 5770 5768 5767 5765
5798 5797 5796 5796 5795 5794 5793 5791 5791 5790 5790 5789 5788 5788 5788 5788 5789 5790 5790 5790 5789 5789 5789 5788 5788 5787 5786 5785 5784 5783 5782 5780 5779 5777 5776 5774 5773 5771 5769 5767 5766 5764 5763 5762
5793 5791 5791 5792 5791 5789 5789 5787 5787 5786 5785 5785 5785 5784 5785 5786 5786 5786 5786 5786 5786 5786 5786 5785 5784 5784 5783 5782 5781 5780 5778 5777 5775 5773 5772 5770 5769 5767 5765 5763 5762 5761 5760 5759
5787 5786 5785 5786 5785 5785 5785 5785 5784 5782 5781 5780 5780 5781 5781 5781 5782 5783 5783 5783 5783 5782 5782 5782 5781 5780 5780 5779 5778 5776 5775 5773 5771 5770 5768 5767 5765 5763 5762 5761 5759 5758 5756 5755
5781 5780 5782 5781 5780 5780 5780 5779 5778 5778 5777 5777 5776 5776 5777 5777 5778 5778 5779 5779 5779 5778 5778 5778 5777 5777 5776 5775 5774 5772 5771 5770 5768 5766 5765 5763 5762 5760 5759 5757 5756 5755 5753 5752
5775 5776 5775 5774 5774 5774 5773 5773 5773 5773 5773 5773 5772 5772 5772 5773 5773 5774 5775 5775 5775 5775 5774 5774 5774 5773 5772 5771 5770 5769 5767 5766 5764 5763 5762 5760 5759 5757 5756 5754 5753 5752 5751 5749
5768 5768 5768 5768 5767 5767 5767 5768 5768 5768 5768 5768 5768 5768 5768 5769 5769 5770 5770 5770 5770 5770 5770 5770 5769 5768 5768 5767 5766 5765 5763 5761 5760 5759 5758 5757 5755 5754 5752 5751 5750 5749 5748 5746
5761 5762 5761 5761 5761 5761 5761 5761 5761 5761 5761 5761 5762 5762 5763 5764 5764 5765 5765 5765 5765 5765 5765 5765 5765 5764 5763 5763 5762 5760 5759 5758 5757 5756 5754 5753 5752 5751 5750 5748 5747 5746 5745 5743
5754 5755 5754 5755 5755 5754 5755 5755 5756 5756 5756 5756 5756 5756 5757 5758 5758 5759 5759 5759 5759 5760 5760 5760 5760 5759 5759 5758 5757 5756 5755 5754 5753 5752 5751 5750 5748 5748 5747 5746 5745 5743 5742 5740
5745 5746 5746 5747 5747 5747 5748 5748 5749 5749 5750 5750 5750 5750 5751 5752 5752 5752 5752 5753 5753 5753 5754 5754 5754 5754 5754 5753 5752 5751 5751 5750 5749 5748 5747 5746 5745 5744 5743 5743 5742 5740 5739 5737
5737 5737 5737 5738 5739 5740 5740 5741 5741 5742 5743 5744 5744 5744 5744 5745 5745 5746 5746 5747 5747 5748 5749 5749 5749 5749 5748 5747 5747 5746 5746 5745 5744 5743 5743 5742 5741 5740 5740 5739 5738 5737 5736 5734
5729 5729 5730 5731 5732 5733 5733 5734 5734 5735 5736 5737 5737 5737 5738 5738 5738 5739 5740 5740 5741 5741 5742 5743 5743 5742 5742 5741 5741 5741 5741 5740 5739 5739 5738 5738 5737 5736 5736 5735 5734 5733 5732 5731
5720 5720 5721 5722 5723 5725 5725 5726 5727 5728 5728 5729 5730 5730 5730 5730 5731 5731 5732 5733 5734 5735 5735 5735 5736 5736 5736 5736 5736 5735 5735 5735 5734 5734 5733 5733 5732 5732 5731 5731 5730 5729 5728 5727
5711 5712 5713 5713 5714 5715 5716 5718 5719 5719 5720 5721 5722 5722 5723 5723 5723 5724 5725 5726 5727 5727 5728 5728 5729 5729 5729 5729 5729 5729 5729 5729 5728 5728 5728 5727 5727 5726 5726 5726 5725 5724 5724 5723
5702 5702 5703 5704 5705 5706 5707 5709 5710 5710 5711 5712 5713 5714 5715 5715 5716 5717 5717 5718 5719 5720 5721 5721 5722 5722 5723 5723 5723 5722 5722 5722 5722 5722 5722 5721 5721 5721 5721 5720 5720 5719 5718 5718
5693 5693 5694 5695 5696 5697 5699 5700 5701 5702 5703 5704 5705 5706 5707 5707 5708 5709 5709 5711 5712 5713 5714 5714 5714 5715 5715 5716 5716 5716 5715 5715 5715 5715 5715 5715 5715 5715 5715 5715 5714 5713 5713 5712
5684 5685 5685 5687 5688 5689 5691 5692 5693 5694 5695 5696 5697 5697 5698 5699 5700 5700 5701 5702 5703 5704 5705 5706 5706 5707 5708 5708 5708 5708 5709 5708 5708 5709 5709 5709 5709 5709 5710 5709 5709 5708 5707 5707
5677 5677 5678 5679 5680 5681 5682 5683 5685 5686 5687 5688 5688 5689 5689 5690 5691 5692 5693 5694 5695 5696 5697 5697 5698 5699 5700 5700 5701 5701 5701 5701 5701 5702 5702 5702 5703 5703 5704 5703 5703 5703 5702 5702
5670 5670 5670 5671 5673 5674 5674 5675 5676 5677 5678 5679 5680 5680 5681 5681 5682 5683 5684 5685 5686 5687 5688 5689 5690 5691 5691 5692 5693 5693 5694 5694 5695 5695 5695 5695 5696 5697 5697 5697 5697 5697 5697 5696
5661 5662 5664 5664 5665 5666 5667 5668 5668 5669 5670 5670 5671 5671 5672 5673 5674 5675 5676 5677 5678 5679 5680 5681 5682 5683 5683 5684 5685 5686 5686 5687 5687 5688 5688 5688 5689 5689 5690 5690 5690 5690 5690 5690
5654 5654 5655 5656 5657 5658 5659 5659 5660 5661 5662 5662 5663 5664 5665 5666 5667 5667 5668 5669 5669 5671 5672 5673 5674 5674 5675 5676 5677 5677 5678 5678 5679 5679 5680 5680 5681 5682 5682 5682 5683 5683 5683 5683
5646 5647 5647 5648 5649 5650 5651 5651 5652 5653 5654 5655 5656 5657 5658 5658 5659 5660 5661 5661 5662 5663 5664 5664 5666 5666 5667 5668 5668 5669 5669 5670 5670 5671 5672 5672 5673 5674 5674 5675 5675 5675 5676 5675
5638 5639 5640 5641 5641 5642 5643 5644 5644 5645 5647 5648 5649 5649 5650 5651 5651 5652 5653 5653 5654 5655 5656 5657 5657 5658 5659 5659 5660 5661 5661 5661 5662 5663 5663 5664 5664 5665 5666 5666 5667 5667 5667 5668
5630 5631 5632 5633 5634 5635 5636 5637 5638 5638 5639 5640 5641 5642 5642 5643 5644 5644 5645 5645 5646 5646 5647 5648 5649 5649 5650 5651 5651 5652 5652 5653 5653 5654 5655 5655 5656 5656 5657 5657 5658 5658 5658 5659